Weather History for KUNU - March, 2012

Change the Weather History Date:

Wednesday, March 7, 2012

  Actual Average Record
Temperature  
Mean Temperature 53 °F -  
Max Temperature 60 °F 32 °F 71 °F (1987)
Min Temperature 46 °F 19 °F -1 °F (1980)
Degree Days  
Heating Degree Days 12    
Growing Degree Days 3 (Base 50)    
Moisture  
Dew Point 39 °F    
Average Humidity 57    
Maximum Humidity 72    
Minimum Humidity 50    
Precipitation  
Precipitation 0.00 in - - ()
Sea Level Pressure  
Sea Level Pressure 29.77 in    
Wind  
Wind Speed 19 mph (South)    
Max Wind Speed 30 mph    
Max Gust Speed 39 mph    
Visibility 10 miles    
Events Rain    
Averages and records for this station are not official NWS values.
T = Trace of Precipitation, MM = Missing Value Source: NWS Daily Summary

Daily Weather History Graph

Daily Weather History Graph

Search for Another Location

Airport or City:

Trip Planner

Search our weather history database for the weather conditions in past years. The results will help you decide how hot, cold, wet, or windy it might be!

Date:

Astronomy

Mar. 07, 2012 Rise Set
Actual Time 6:20 AM CST 5:51 PM CST
Civil Twilight 5:51 AM CST 6:20 PM CST
Nautical Twilight 5:18 AM CST 6:53 PM CST
Astronomical Twilight 4:45 AM CST 7:26 PM CST
Moon 5:28 PM CST (3/7) 5:30 AM CST (3/7)
Length of Visible Light 12h 28m
Length of Day
11h 31m
Waxing Gibbous, 99% of the Moon is Illuminated
Mar 7
Waxing Gibbous
Mar 8
Full
Mar 14
Last Quarter
Mar 22
New
Mar 30
First Quarter

Hourly Weather History & Observations

Time (CST) Temp. Windchill Dew Point Humidity Pressure Visibility Wind Dir Wind Speed Gust Speed Precip Events Conditions
12:15 AM 46.4 °F 40.4 °F 33.8 °F 62% 29.85 in 10.0 mi South 13.8 mph - N/A   Clear
12:35 AM 48.2 °F - 33.8 °F 58% 29.85 in 10.0 mi South 12.7 mph - N/A   Clear
12:55 AM 48.2 °F - 33.8 °F 58% 29.85 in 10.0 mi South 13.8 mph - N/A   Clear
1:15 AM 48.2 °F - 33.8 °F 58% 29.85 in 10.0 mi South 15.0 mph - N/A   Clear
1:55 AM 48.2 °F - 33.8 °F 58% 29.85 in 10.0 mi South 15.0 mph - N/A   Clear
2:15 AM 46.4 °F 39.8 °F 33.8 °F 62% 29.84 in 10.0 mi South 16.1 mph - N/A   Clear
2:35 AM 48.2 °F - 33.8 °F 58% 29.84 in 10.0 mi South 20.7 mph 26.5 mph N/A   Clear
2:55 AM 48.2 °F - 33.8 °F 58% 29.84 in 10.0 mi South 18.4 mph - N/A   Scattered Clouds
3:15 AM 48.2 °F - 33.8 °F 58% 29.84 in 10.0 mi South 18.4 mph 24.2 mph N/A   Scattered Clouds
3:35 AM 50.0 °F - 33.8 °F 54% 29.84 in 10.0 mi South 17.3 mph 24.2 mph N/A   Mostly Cloudy
4:15 AM 50.0 °F - 35.6 °F 58% 29.83 in 10.0 mi South 16.1 mph 23.0 mph N/A   Overcast
4:35 AM 48.2 °F - 35.6 °F 62% 29.84 in 10.0 mi South 13.8 mph - N/A   Overcast
4:55 AM 48.2 °F - 35.6 °F 62% 29.84 in 10.0 mi South 15.0 mph - N/A   Overcast
5:15 AM 48.2 °F - 35.6 °F 62% 29.83 in 10.0 mi South 15.0 mph 21.9 mph N/A   Overcast
5:35 AM 48.2 °F - 35.6 °F 62% 29.83 in 10.0 mi South 13.8 mph - N/A   Overcast
6:15 AM 50.0 °F - 35.6 °F 58% 29.83 in 10.0 mi South 19.6 mph 25.3 mph N/A   Overcast
6:35 AM 50.0 °F - 35.6 °F 58% 29.83 in 10.0 mi South 21.9 mph 26.5 mph N/A   Overcast
6:55 AM 50.0 °F - 35.6 °F 58% 29.83 in 10.0 mi South 19.6 mph 27.6 mph N/A   Overcast
7:15 AM 50.0 °F - 35.6 °F 58% 29.84 in 10.0 mi South 23.0 mph 28.8 mph N/A   Overcast
7:55 AM 50.0 °F - 33.8 °F 54% 29.83 in 10.0 mi South 23.0 mph 28.8 mph N/A   Overcast
8:15 AM 50.0 °F - 33.8 °F 54% 29.83 in 10.0 mi South 23.0 mph 27.6 mph N/A   Overcast
8:35 AM 50.0 °F - 33.8 °F 54% 29.82 in 10.0 mi South 23.0 mph 29.9 mph N/A   Overcast
8:55 AM 51.8 °F - 33.8 °F 50% 29.82 in 10.0 mi South 24.2 mph 29.9 mph N/A   Overcast
9:15 AM 51.8 °F - 33.8 °F 50% 29.82 in 10.0 mi South 21.9 mph 34.5 mph N/A   Overcast
9:35 AM 51.8 °F - 35.6 °F 54% 29.81 in 10.0 mi South 23.0 mph 28.8 mph N/A   Overcast
9:55 AM 53.6 °F - 35.6 °F 51% 29.81 in 10.0 mi South 26.5 mph 32.2 mph N/A   Overcast
10:15 AM 53.6 °F - 35.6 °F 51% 29.80 in 10.0 mi South 23.0 mph 32.2 mph N/A   Overcast
10:35 AM 55.4 °F - 37.4 °F 51% 29.80 in 10.0 mi South 26.5 mph 34.5 mph N/A   Scattered Clouds
10:55 AM 55.4 °F - 37.4 °F 51% 29.79 in 10.0 mi South 26.5 mph 39.1 mph N/A   Mostly Cloudy
11:15 AM 55.4 °F - 37.4 °F 51% 29.78 in 10.0 mi South 27.6 mph 33.4 mph N/A   Overcast
11:35 AM 55.4 °F - 37.4 °F 51% 29.77 in 10.0 mi South 26.5 mph 33.4 mph N/A   Mostly Cloudy
11:55 AM 59.0 °F - 41.0 °F 51% 29.77 in 10.0 mi South 25.3 mph 34.5 mph N/A   Mostly Cloudy
12:15 PM 59.0 °F - 41.0 °F 51% 29.76 in 10.0 mi South 21.9 mph 31.1 mph N/A   Overcast
12:35 PM 59.0 °F - 41.0 °F 51% 29.75 in 10.0 mi South 29.9 mph 35.7 mph N/A   Overcast
12:55 PM 59.0 °F - 42.8 °F 55% 29.73 in 10.0 mi South 27.6 mph 35.7 mph N/A   Overcast
1:15 PM 59.0 °F - 42.8 °F 55% 29.73 in 10.0 mi SSW 27.6 mph 36.8 mph N/A   Overcast
1:35 PM 59.0 °F - 42.8 °F 55% 29.71 in 10.0 mi SSW 21.9 mph 39.1 mph N/A   Overcast
1:55 PM 60.8 °F - 44.6 °F 55% 29.72 in 10.0 mi SSW 27.6 mph 39.1 mph N/A   Overcast
2:15 PM 59.0 °F - 44.6 °F 59% 29.72 in 10.0 mi SSW 26.5 mph 32.2 mph N/A   Overcast
2:35 PM 60.8 °F - 44.6 °F 55% 29.72 in 10.0 mi South 24.2 mph 31.1 mph N/A   Overcast
2:55 PM 60.8 °F - 44.6 °F 55% 29.72 in 10.0 mi SSW 24.2 mph 28.8 mph N/A   Overcast
3:15 PM 59.0 °F - 44.6 °F 59% 29.71 in 10.0 mi South 20.7 mph 27.6 mph N/A   Overcast
3:35 PM 60.8 °F - 44.6 °F 55% 29.71 in 10.0 mi South 20.7 mph 29.9 mph N/A   Overcast
3:55 PM 59.0 °F - 44.6 °F 59% 29.71 in 10.0 mi South 17.3 mph - N/A   Overcast
4:15 PM 59.0 °F - 44.6 °F 59% 29.70 in 10.0 mi South 17.3 mph 23.0 mph N/A   Overcast
4:35 PM 59.0 °F - 44.6 °F 59% 29.71 in 10.0 mi South 23.0 mph 26.5 mph N/A   Overcast
4:55 PM 59.0 °F - 44.6 °F 59% 29.70 in 10.0 mi South 19.6 mph 27.6 mph N/A   Overcast
5:15 PM 59.0 °F - 44.6 °F 59% 29.70 in 10.0 mi South 18.4 mph 24.2 mph N/A   Overcast
5:35 PM 59.0 °F - 44.6 °F 59% 29.70 in 10.0 mi South 18.4 mph 25.3 mph N/A   Overcast
5:55 PM 59.0 °F - 44.6 °F 59% 29.70 in 10.0 mi South 16.1 mph 26.5 mph N/A   Overcast
6:15 PM 59.0 °F - 44.6 °F 59% 29.70 in 10.0 mi South 19.6 mph 25.3 mph N/A   Overcast
6:35 PM 59.0 °F - 44.6 °F 59% 29.69 in 10.0 mi South 23.0 mph 28.8 mph N/A   Overcast
6:55 PM 59.0 °F - 44.6 °F 59% 29.70 in 10.0 mi South 21.9 mph 31.1 mph N/A   Overcast
7:15 PM 59.0 °F - 44.6 °F 59% 29.70 in 10.0 mi South 21.9 mph 32.2 mph N/A   Overcast
7:35 PM 59.0 °F - 46.4 °F 63% 29.70 in 10.0 mi South 21.9 mph 28.8 mph N/A   Overcast
7:55 PM 59.0 °F - 46.4 °F 63% 29.70 in 10.0 mi South 23.0 mph 31.1 mph N/A   Overcast
8:15 PM 57.2 °F - 46.4 °F 67% 29.69 in 10.0 mi SSW 23.0 mph 32.2 mph N/A Rain Light Rain
8:35 PM 55.4 °F - 46.4 °F 72% 29.69 in 10.0 mi South 16.1 mph - N/A   Drizzle
8:55 PM 55.4 °F - 46.4 °F 72% 29.70 in 7.0 mi SW 13.8 mph - 0.01 in Rain Light Rain
9:15 PM 53.6 °F - 48.2 °F 82% 29.71 in 3.0 mi WSW 21.9 mph 31.1 mph 0.05 in Rain Heavy Rain
9:35 PM 51.8 °F - 46.4 °F 82% 29.72 in 7.0 mi SW 17.3 mph - 0.10 in Rain Light Rain
9:55 PM 51.8 °F - 46.4 °F 82% 29.71 in 7.0 mi SW 11.5 mph - 0.12 in Rain Rain
10:15 PM 50.0 °F - 46.4 °F 87% 29.73 in 3.0 mi WSW 16.1 mph 19.6 mph 0.05 in Rain Heavy Rain
10:35 PM 42.8 °F 37.0 °F 41.0 °F 93% 29.74 in 4.0 mi WNW 10.4 mph 19.6 mph 0.16 in Rain Rain
11:15 PM 41.0 °F 33.5 °F 39.2 °F 93% 29.78 in 7.0 mi West 13.8 mph 19.6 mph 0.01 in Rain Rain
11:55 PM 37.4 °F 30.8 °F 35.6 °F 93% 29.79 in 5.0 mi WNW 9.2 mph 16.1 mph 0.04 in Rain Rain